Torna al catalogo

COSMOS 2095

AttivoMilitarePO
NORAD 20740·PAYLOAD·🇷🇺 Russia

Lanciato Aug 8, 1990 da Plesetsk Cosmodrome

Loading…

Prossimi Passaggi (prossime 24 ore)

TLE

AggiornatoSource: Space-Track

Epoca: Sep 14, 2026, 06:36 UTC

1 20740U 90070F   26257.27546425  .00000020  00000-0  47469-4 0  9992
2 20740  82.5739 210.2199 0019327 169.1998 354.4235 12.66143385668306

Traccia COSMOS 2095 in tempo reale con AllMySat

Download on the App Store